[[{"header":{"parameterUnit":"m.s-1","parameterCategory":1,"la1":30.2991,"la2":30.254,"lo1":-89.0895,"lo2":-89.0444,"dy":0.0017,"dx":0.0017,"nx":28,"ny":28,"refTime":"2025-02-26T03:00:00:Z","depth":0,"parameterNumber":2,"parameterNumberName":"U-component_of_WINDS"},"data":[0,0,0,0,0,0,0,0,0,0,0,0,0,0,0,0,0,0,0,0,0,0,0,0,0,0,0,0,0,0,0,0,0,0,0,0,0,0,0,0,0,0,0,0,0,0,0,0,0,0,0,0,0,0,0,0,0,0,2.0907,2.0907,0,2.0943,2.0943,2.0944,2.087,2.0868,2.0866,2.0863,2.0904,2.0907,2.0911,0,0,0,0,0,0,0,0,0,0,0,0,0,2.0777,2.078,2.0907,2.0907,2.0908,2.0943,2.0943,2.0944,2.0871,2.0868,2.0865,2.0862,2.0903,2.0907,2.0911,0,0,0,0,0,0,0,0,0,0,0,0,0,2.0825,2.0781,2.0907,2.0875,2.0873,2.0943,2.0943,2.0944,2.0871,2.0868,2.0864,2.0861,2.0902,2.0907,2.0911,2.1014,0,0,2.0927,2.0929,0,0,0,0,0,0,0,0,2.0823,2.083,2.0879,2.0878,2.0875,2.0898,2.0912,2.0968,2.0872,2.0872,2.0863,2.0859,2.0905,2.091,2.0925,2.1016,2.1018,2.0927,2.093,2.0932,2.0934,0,0,0,0,0,0,0,2.0819,2.0828,2.0921,2.088,2.0878,2.086,2.0863,2.0923,2.0909,2.0872,2.0867,2.0872,2.0903,2.092,2.0925,2.1019,2.0927,2.0931,2.0934,2.0936,2.1196,2.1199,0,0,0,0,0,0,2.082,2.0826,2.092,2.0922,2.0839,2.0866,2.0869,2.0895,2.0908,2.0906,2.0875,2.0868,2.0913,2.0919,2.0926,2.1046,2.0932,2.0937,2.094,2.1192,2.1197,2.1201,0,0,0,0,0,0,2.0817,2.0829,2.0918,2.0873,2.0883,2.0872,2.0901,2.0897,2.0913,2.091,2.0907,2.0894,2.0911,2.0919,2.0992,2.1047,2.0939,2.0944,2.1187,2.1193,2.1199,2.1289,0,0,0,0,0,0,2.0814,2.0828,2.0867,2.0874,2.0885,2.0984,2.0904,2.09,2.0922,2.0914,2.0927,2.0926,2.0908,2.0985,2.0997,2.1052,2.0948,2.1182,2.119,2.1197,2.1281,2.1297,2.1311,0,0,0,0,0,2.0809,2.0892,2.0869,2.0881,2.0933,2.0987,2.0993,2.097,2.0927,2.0965,2.0963,2.0926,2.1039,2.0994,2.1006,2.1063,2.1179,2.1188,2.1196,2.1274,2.1294,2.1311,0,0,0,0,0,0,2.0892,2.0892,2.0867,2.0954,2.0971,2.0974,2.1022,2.0992,2.1023,2.1014,2.0985,2.0989,2.1068,2.1073,2.1022,2.1163,2.1102,2.1113,2.1157,2.1175,2.119,2.1187,2.0952,0,0,0,0,0,2.092,2.0963,2.0961,2.1038,2.1048,2.1034,2.1056,2.1037,2.1054,2.1061,2.1064,2.1083,2.1122,2.1149,2.1186,2.1282,2.1283,2.1327,2.1342,2.1354,2.1365,2.1415,2.1434,2.123,2.1229,2.1229,0,0,2.0979,2.0985,2.1014,2.1055,2.1065,2.1111,2.104,2.1092,2.1125,2.1069,2.1138,2.1141,2.116,2.1245,2.1282,2.1252,2.1422,2.1365,2.1375,2.1379,2.1426,2.1445,2.1462,2.1235,2.1234,2.1233,0,0,2.111,2.1118,2.1183,2.1195,2.1211,2.1202,2.1217,2.1226,2.1225,2.1293,2.1252,2.1292,2.1361,2.1376,2.1393,2.1529,2.1495,2.1541,2.1619,2.1669,2.1685,2.1699,2.1746,2.1764,2.1552,2.1552,2.1552,0,2.1181,2.1247,2.122,2.1274,2.1293,2.1243,2.1308,2.1322,2.1351,2.1365,2.133,2.1415,2.1425,2.1512,2.1544,2.156,2.1577,2.1539,2.1684,2.1698,2.1711,2.1756,2.1774,2.1558,2.1557,2.1556,2.1556,0,2.1334,2.138,2.143,2.1457,2.1483,2.1542,2.1525,2.1553,2.1532,2.1526,2.1596,2.1606,2.1643,2.1662,2.1643,2.1747,2.1727,2.1689,2.1626,2.1736,2.1778,2.1795,2.1565,2.1563,2.1562,2.156,0,0,2.1517,2.1528,2.1546,2.1558,2.1573,2.1609,2.1666,2.1701,2.1726,2.1748,2.1795,2.1854,2.1818,2.1838,2.1819,2.1863,2.1968,2.1819,2.1819,2.1846,2.2083,2.211,2.2131,2.1947,2.195,2.1952,2.2081,0,2.1645,2.1742,2.1719,2.1816,2.1858,2.1811,2.1861,2.1876,2.1873,2.1909,2.1905,2.1947,2.1897,2.1908,2.1949,2.1947,2.2016,2.1938,2.199,2.1993,2.1986,2.2153,2.2182,2.2303,2.2097,2.21,2.2102,0,2.1807,2.1833,2.1934,2.1941,2.1958,2.2003,2.2033,2.2068,2.2084,2.2078,2.2099,2.2072,2.2129,2.2067,2.2145,2.2093,2.2113,2.2116,2.212,2.2123,2.2053,2.216,2.2341,2.2359,2.2127,2.2125,2.2123,0,2.1929,2.199,2.2057,2.2069,2.2079,2.2112,2.2118,2.2131,2.2153,2.2179,2.2193,2.2227,2.2245,2.2272,2.2255,2.2211,2.2336,2.2273,2.2333,2.2334,2.2361,2.2359,2.2547,2.2376,2.2376,2.2376,2.2375,0,2.2074,2.2137,2.2112,2.2154,2.2223,2.2197,2.2266,2.2267,2.2278,2.232,2.2282,2.2322,2.2297,2.2335,2.2323,2.2389,2.2398,2.2395,2.239,2.2397,2.2398,2.241,2.24,2.238,2.2379,2.2378,2.2378,0,2.2222,2.2208,2.2278,2.2282,2.2284,2.2335,2.2339,2.2378,2.2371,2.2423,2.2434,2.2424,2.2467,2.2452,2.2499,2.249,2.2574,2.256,2.2568,2.2564,2.2625,2.2619,2.2826,2.2851,2.2666,2.2667,2.2669,0,2.2314,2.2361,2.237,2.2394,2.2403,2.2443,2.2465,2.2441,2.2466,2.2488,2.2524,2.2563,2.2593,2.2663,2.266,2.2695,2.2681,2.2751,2.2686,2.2691,2.268,2.2677,2.2681,2.2764,2.2766,2.2768,2.2769,0,2.248,2.2471,2.2503,2.2534,2.2561,2.2584,2.2604,2.2627,2.2604,2.2634,2.2676,2.27,2.2746,2.2785,2.2816,2.2823,2.2793,2.279,2.2805,2.2812,2.2815,2.2813,2.2602,2.2785,2.2783,2.2782,2.2781,2.278,2.2602,2.2641,2.2653,2.2691,2.2703,2.2723,2.2759,2.2757,2.2791,2.2826,2.2811,2.2859,2.2874,2.2913,2.2924,2.2962,2.2935,2.2958,2.2964,2.297,2.2977,2.281,2.2968,2.2968,2.2967,2.2967,2.2967,0,2.2764,2.277,2.2805,2.2833,2.2863,2.2831,2.2851,2.2879,2.2922,2.2938,2.2967,2.3016,2.3053,2.3054,2.3089,2.3119,2.3106,2.3129,2.3126,2.3128,2.2999,2.2982,2.3139,2.3139,2.3139,2.3139,2.3139,2.3139,2.2852,2.2917,2.2909,2.2979,2.2984,2.3031,2.3045,2.3063,2.3075,2.3131,2.3161,2.3161,2.3171,2.3206,2.3239,2.3238,2.3252,2.3281,2.3275,2.3154,2.3137,2.3121,2.3104,2.3284,2.3285,2.3399,2.3401,2.3401]},{"header":{"parameterUnit":"m.s-1","parameterCategory":1,"la1":30.2991,"la2":30.254,"lo1":-89.0895,"lo2":-89.0444,"dy":0.0017,"dx":0.0017,"nx":28,"ny":28,"refTime":"2025-02-26T03:00:00:Z","depth":0,"parameterNumber":3,"parameterNumberName":"V-component_of_WINDS"},"data":[0,0,0,0,0,0,0,0,0,0,0,0,0,0,0,0,0,0,0,0,0,0,0,0,0,0,0,0,0,0,0,0,0,0,0,0,0,0,0,0,0,0,0,0,0,0,0,0,0,0,0,0,0,0,0,0,0,0,2.5967,2.5967,0,2.5963,2.5963,2.5963,2.591,2.5909,2.5908,2.5906,2.59,2.5901,2.5902,0,0,0,0,0,0,0,0,0,0,0,0,0,2.5926,2.5927,2.5967,2.5967,2.5967,2.5963,2.5963,2.5963,2.5911,2.5909,2.5907,2.5906,2.5899,2.5901,2.5902,0,0,0,0,0,0,0,0,0,0,0,0,0,2.5935,2.5927,2.5967,2.5941,2.5938,2.5963,2.5963,2.5963,2.5911,2.5909,2.5907,2.5905,2.5899,2.5901,2.5902,2.5952,0,0,2.5907,2.5908,0,0,0,0,0,0,0,0,2.5934,2.5936,2.5945,2.5943,2.594,2.5935,2.5946,2.5959,2.5911,2.5921,2.5906,2.5904,2.5913,2.5913,2.5917,2.5951,2.5951,2.5907,2.5908,2.5909,2.5909,0,0,0,0,0,0,0,2.5934,2.5936,2.5966,2.5945,2.5942,2.5927,2.5927,2.5948,2.5928,2.592,2.5916,2.5917,2.5911,2.5915,2.5916,2.5951,2.5907,2.5908,2.5909,2.591,2.6021,2.6023,0,0,0,0,0,0,2.5937,2.5936,2.5966,2.5965,2.5932,2.593,2.5929,2.5939,2.5928,2.5924,2.5918,2.5914,2.5914,2.5914,2.5916,2.597,2.5909,2.591,2.5911,2.6019,2.6021,2.6024,0,0,0,0,0,0,2.5937,2.5941,2.5966,2.595,2.5952,2.5933,2.5944,2.594,2.5944,2.5927,2.5922,2.5927,2.5912,2.5914,2.5942,2.5969,2.5911,2.5912,2.6017,2.602,2.6022,2.6081,0,0,0,0,0,0,2.5936,2.5941,2.5961,2.5951,2.5953,2.5994,2.5946,2.5941,2.5947,2.5941,2.5933,2.593,2.5911,2.594,2.5944,2.597,2.5914,2.6014,2.6018,2.6022,2.6076,2.6085,2.6093,0,0,0,0,0,2.5935,2.5978,2.5962,2.5966,2.5978,2.5996,2.5997,2.5975,2.5949,2.5968,2.5956,2.593,2.5966,2.5944,2.5947,2.5975,2.6012,2.6017,2.6021,2.6073,2.6084,2.6093,0,0,0,0,0,0,2.5992,2.5976,2.5958,2.6,2.6,2.5987,2.601,2.5988,2.5994,2.5989,2.596,2.5959,2.5991,2.5986,2.5961,2.602,2.5984,2.599,2.6022,2.6032,2.6041,2.6041,2.5915,0,0,0,0,0,2.6009,2.6026,2.6011,2.6049,2.605,2.603,2.6037,2.602,2.6018,2.6018,2.6008,2.6007,2.6017,2.6024,2.6033,2.6075,2.6071,2.6096,2.6104,2.6111,2.6116,2.6134,2.6144,2.6038,2.6038,2.6038,0,0,2.6045,2.6039,2.6051,2.606,2.6058,2.6074,2.603,2.6051,2.6062,2.602,2.6046,2.6039,2.6035,2.607,2.6084,2.6066,2.6144,2.6117,2.6123,2.6123,2.614,2.615,2.6158,2.6041,2.6041,2.604,0,0,2.6119,2.6117,2.6147,2.6145,2.6141,2.6128,2.6135,2.6125,2.6118,2.6144,2.6112,2.6124,2.6144,2.6141,2.6143,2.6212,2.6187,2.6216,2.6259,2.6277,2.6285,2.6293,2.6315,2.6323,2.622,2.6221,2.6221,0,2.6164,2.6189,2.6165,2.6186,2.6189,2.6152,2.618,2.618,2.6179,2.6182,2.6162,2.6183,2.6178,2.621,2.6226,2.623,2.6235,2.6216,2.6286,2.6293,2.63,2.632,2.6329,2.6224,2.6224,2.6223,2.6223,0,2.6243,2.626,2.6284,2.6284,2.629,2.6315,2.6293,2.6302,2.6283,2.6271,2.6295,2.6288,2.6293,2.6299,2.6282,2.6328,2.6316,2.6292,2.6255,2.6313,2.6332,2.634,2.6229,2.6228,2.6227,2.6226,0,0,2.6354,2.6338,2.6347,2.6345,2.6337,2.6349,2.6371,2.6376,2.6383,2.6383,2.6399,2.6415,2.6391,2.6393,2.6374,2.639,2.6442,2.6363,2.6363,2.6376,2.6488,2.6505,2.6515,2.6425,2.6427,2.6428,2.6488,0,2.6423,2.646,2.6437,2.6476,2.649,2.6454,2.6472,2.6468,2.6456,2.6465,2.6452,2.6462,2.6432,2.6432,2.6447,2.6433,2.6464,2.6428,2.6438,2.6438,2.6438,2.6525,2.6544,2.6601,2.6495,2.6496,2.6497,0,2.6509,2.6511,2.6552,2.6538,2.6543,2.6561,2.6561,2.6571,2.6565,2.6555,2.6555,2.6531,2.6549,2.6514,2.6537,2.6513,2.6515,2.6509,2.651,2.6509,2.647,2.6524,2.6619,2.6627,2.6509,2.6508,2.6507,0,2.6582,2.6596,2.6621,2.6621,2.6607,2.6619,2.6613,2.6605,2.6608,2.6609,2.661,2.6613,2.6614,2.6616,2.6592,2.6569,2.6617,2.6581,2.6607,2.6608,2.6618,2.6618,2.6712,2.6623,2.6623,2.6623,2.6623,0,2.666,2.6686,2.6654,2.6669,2.6696,2.6668,2.6695,2.6685,2.6678,2.6689,2.6658,2.6669,2.6639,2.6646,2.6628,2.6648,2.6649,2.664,2.6635,2.6642,2.6643,2.6642,2.6637,2.6625,2.6624,2.6624,2.6624,0,2.6746,2.6726,2.6751,2.6734,2.673,2.6751,2.6735,2.6748,2.6733,2.6748,2.675,2.6727,2.6733,2.671,2.6714,2.6701,2.673,2.6719,2.6732,2.6728,2.6755,2.6752,2.6851,2.6862,2.6768,2.6768,2.6769,0,2.6797,2.6816,2.68,2.6806,2.6801,2.6811,2.6813,2.6787,2.679,2.6783,2.6795,2.6799,2.6801,2.6813,2.6796,2.6797,2.6784,2.6819,2.6784,2.679,2.6782,2.6781,2.6781,2.6826,2.6827,2.6828,2.6829,0,2.6888,2.6876,2.6882,2.6883,2.6887,2.6886,2.6884,2.6889,2.686,2.6866,2.6872,2.6873,2.6875,2.6879,2.6876,2.6868,2.6843,2.684,2.6846,2.6852,2.6858,2.6853,2.6749,2.6838,2.6837,2.6836,2.6836,2.6835,2.6956,2.6969,2.696,2.6966,2.6961,2.6958,2.6968,2.6954,2.6959,2.6959,2.6942,2.6951,2.6941,2.6935,2.6929,2.6935,2.6918,2.6927,2.6929,2.6931,2.6935,2.6859,2.6934,2.6934,2.6934,2.6934,2.6933,0,2.7043,2.7034,2.704,2.7037,2.7041,2.7017,2.7012,2.7017,2.7025,2.7018,2.702,2.7025,2.7028,2.701,2.7009,2.7017,2.7005,2.7017,2.7016,2.7014,2.6951,2.6945,2.7027,2.7027,2.7027,2.7027,2.7027,2.7027,2.7089,2.7109,2.7096,2.7112,2.7103,2.7112,2.711,2.7107,2.7101,2.7109,2.711,2.7099,2.7086,2.7084,2.7085,2.7079,2.708,2.7096,2.7086,2.7028,2.7018,2.701,2.7004,2.7096,2.7097,2.7148,2.7148,2.7149]}]]